BEIDOU-2 G6

Last updated on Wed Sep 17 2025 00:02:48 GMT+0000 (Coordinated Universal Time)

1 38953U 12059A 25259.60037208 -.00000193 00000+0 00000+0 0 9996 2 38953 3.7223 76.3771 0006212 311.3936 268.1872 1.00270659 47167
UTC large
Height (km)
Speed (km/s)
/
Latitude / Longitude
Inclination (degrees)
Orbital Period (minutes)
Azimuth
Elevation
Range (km)
Doppler Factor

Next 0 passes for location: London (51.5072 / 0.1276)

Sorry there are no passes over London.